• Join FlightAware (Why Join?)
  • Login
  • US Flag 
12:09AM EDT


 

Airport Tracker/Info


-or-


 

Live Flight TrackerFlight Track Log ✈ SWA3675 ✈ 28-Apr-2013 ✈ KBWI - KORF

Flight Track Log - Related Links

Times and Time Zones

All times are in EDT time to prevent confusion due to time zone crossing. See the SWA3675 flight status page for this flight to view local times or setup timezone preferences in your user account.

Time Position Orientation Groundspeed Altitude Reporting Facility
EDT Latitude Longitude Course Direction KTS MPH feet Rate Location/Type
07:54PM 39.1500 -76.6500 142° Southeast 156 180 2,000  Level Potomac TRACON
07:55PM 39.1000 -76.6000 142° Southeast 189 217 4,600 2,700 Climbing Potomac TRACON
07:56PM 39.0500 -76.5500 142° Southeast 227 261 7,700 2,940 Climbing Potomac TRACON
07:57PM 38.9833 -76.5333 169° South 280 322 10,500 2,940 Climbing Potomac TRACON
07:58PM 38.9000 -76.5167 171° South 329 379 13,300 1,260 Climbing Potomac TRACON
08:00PM 38.7533 -76.5367 186° South 323 372 14,000 240 Climbing Washington Center
08:01PM 38.6839 -76.6075 219° Southwest 309 356 14,000  Level Washington Center
08:02PM 38.6125 -76.6758 217° Southwest 314 361 14,000  Level Washington Center
08:03PM 38.5347 -76.7278 208° Southwest 320 368 14,000  Level Washington Center
08:04PM 38.4392 -76.7131 173° South 317 365 14,000  Level Washington Center
08:05PM 38.3475 -76.7036 175° South 323 372 14,000  Level Washington Center
08:06PM 38.2683 -76.6867 170° South 329 379 14,000  Level Washington Center
08:07PM 38.1789 -76.6508 163° South 329 379 14,000  Level Washington Center
08:08PM 38.0917 -76.6050 158° South 340 391 14,000  Level Washington Center
08:09PM 38.0067 -76.5564 156° South 345 397 14,000  Level Washington Center
08:09PM 37.9256 -76.5131 157° South 336 387 14,100  Climbing Washington Center
08:10PM 37.8550 -76.4781 159° South 336 387 14,100 -120 Level Washington Center
08:11PM 37.8342 -76.4594 145° Southeast 340 391 14,000 -300 Descending Washington Center
08:11PM 37.7697 -76.4297 160° South 337 388 13,800 -600 Descending Washington Center
08:12PM 37.7511 -76.4139 146° Southeast 334 384 13,400 -1,620 Descending Washington Center
08:12PM 37.6889 -76.3869 161° South 314 361 12,200 -1,680 Descending Washington Center
08:13PM 37.6700 -76.3736 151° Southeast 324 373 11,700 -1,380 Descending Washington Center
08:13PM 37.5950 -76.3572 170° South 301 346 10,700 -1,200 Descending Washington Center
08:15PM 37.5119 -76.3250 163° South 301 346 9,300 -1,140 Descending Washington Center
08:15PM 37.4431 -76.3189 176° South 262 302 8,500 -1,080 Descending Washington Center
08:16PM 37.3700 -76.3131 176° South 261 300 7,400 -1,140 Descending Washington Center
08:17PM 37.2992 -76.3072 176° South 250 288 6,200 -1,200 Descending Washington Center
08:18PM 37.2303 -76.3067 180° South 247 284 5,100 -1,200 Descending Washington Center
08:19PM 37.1658 -76.3033 178° South 241 277 3,900 -1,020 Descending Washington Center
08:20PM 37.0989 -76.3003 178° South 241 277 3,100 -420 Descending Washington Center
08:21PM 37.0281 -76.2994 179° South 233 268 3,100  Level Washington Center
08:22PM 36.9614 -76.3014 181° South 236 272 3,100  Level Washington Center